[[{"header":{"parameterUnit":"m.s-1","parameterCategory":2,"la1":30.2991,"la2":30.254,"lo1":-89.0895,"lo2":-89.0444,"dy":0.0017,"dx":0.0017,"nx":28,"ny":28,"refTime":"2023-11-03T09:00:00:Z","depth":"0","parameterNumber":2,"parameterNumberName":"U-component_of_CURRENTS"},"data":[0,0,0,0,0,0,0,0,0,0,0,0,0,0,0,0,0,0,0,0,0,0,0,0,0,0,0,0,0,0,0,0,0,0,0,0,0,0,0,0,0,0,0,0,0,0,0,0,0,0,0,0,0,0,0,0,0,0,0.2924,0.2925,0,0.2958,0.2958,0.2959,0.2962,0.2962,0.2962,0.2962,0.296,0.296,0.2961,0,0,0,0,0,0,0,0,0,0,0,0,0,0.288,0.288,0.2924,0.2925,0.2925,0.2958,0.2958,0.2959,0.2962,0.2962,0.2962,0.2961,0.296,0.296,0.2961,0,0,0,0,0,0,0,0,0,0,0,0,0,0.2902,0.288,0.2924,0.2933,0.2935,0.2958,0.2958,0.2959,0.2962,0.2962,0.2962,0.2961,0.296,0.296,0.2961,0.2963,0,0,0.2961,0.2961,0,0,0,0,0,0,0,0,0.2901,0.2903,0.2931,0.2933,0.2934,0.2958,0.2943,0.296,0.2962,0.2948,0.2962,0.2961,0.2959,0.2959,0.2962,0.2963,0.2963,0.2961,0.2961,0.2961,0.2961,0,0,0,0,0,0,0,0.2899,0.2902,0.2934,0.2932,0.2934,0.2942,0.2945,0.2946,0.2951,0.2949,0.295,0.2959,0.2959,0.2962,0.2962,0.2963,0.2961,0.2961,0.2961,0.2961,0.298,0.2981,0,0,0,0,0,0,0.29,0.29,0.2933,0.2936,0.292,0.2943,0.2946,0.2948,0.2951,0.2953,0.2959,0.2959,0.2961,0.2961,0.2962,0.3001,0.2961,0.2961,0.2961,0.298,0.298,0.2981,0,0,0,0,0,0,0.2899,0.2903,0.2932,0.2922,0.2926,0.2944,0.2947,0.2949,0.2955,0.296,0.296,0.2964,0.2961,0.2961,0.2963,0.3,0.2961,0.2961,0.2979,0.298,0.2981,0.3057,0,0,0,0,0,0,0.2897,0.2902,0.29,0.2921,0.2927,0.2953,0.2947,0.295,0.2962,0.2962,0.2964,0.2963,0.2961,0.2963,0.2964,0.2999,0.2961,0.2979,0.298,0.298,0.3054,0.306,0.3065,0,0,0,0,0,0.2896,0.2896,0.29,0.2904,0.2925,0.2954,0.2957,0.2967,0.2962,0.297,0.2966,0.2963,0.2969,0.2964,0.2964,0.3,0.2978,0.2979,0.298,0.3051,0.3059,0.3065,0,0,0,0,0,0,0.2866,0.2897,0.2902,0.2908,0.2933,0.2955,0.2963,0.2969,0.2972,0.297,0.2966,0.2965,0.2988,0.2971,0.2965,0.3005,0.2975,0.2976,0.3029,0.3036,0.3042,0.3063,0.2961,0,0,0,0,0,0.2862,0.2877,0.2904,0.2911,0.2923,0.2942,0.2953,0.2964,0.2973,0.2975,0.2978,0.2978,0.2992,0.2994,0.3,0.3014,0.3026,0.3036,0.3042,0.3047,0.3062,0.3091,0.3102,0.2984,0.2984,0.2984,0,0,0.285,0.2872,0.2877,0.2907,0.2924,0.2954,0.2948,0.297,0.3,0.2974,0.3002,0.3001,0.2999,0.3026,0.3033,0.3016,0.3092,0.3048,0.3053,0.3066,0.3093,0.3105,0.3115,0.2985,0.2985,0.2985,0,0,0.2849,0.2856,0.2874,0.2901,0.2938,0.2958,0.2967,0.2995,0.301,0.3033,0.3031,0.3047,0.3053,0.3073,0.308,0.3116,0.3125,0.3114,0.3162,0.319,0.3201,0.321,0.3268,0.3282,0.3114,0.3114,0.3114,0,0.2833,0.2862,0.2883,0.2915,0.2942,0.2963,0.2995,0.302,0.3045,0.3064,0.3049,0.3087,0.3085,0.3135,0.3151,0.3136,0.3156,0.314,0.3201,0.321,0.3218,0.3275,0.329,0.3118,0.3117,0.3117,0.3117,0,0.2856,0.288,0.2895,0.2948,0.2979,0.3008,0.3053,0.3083,0.3099,0.3122,0.3168,0.3169,0.3193,0.3199,0.3189,0.3252,0.3251,0.3211,0.319,0.3235,0.3292,0.3306,0.3123,0.3122,0.3121,0.312,0,0,0.2817,0.2895,0.29,0.2934,0.2999,0.3028,0.3089,0.3147,0.3186,0.3213,0.3263,0.3296,0.3295,0.3304,0.3299,0.3324,0.3409,0.3296,0.3296,0.3368,0.3499,0.3538,0.3557,0.3376,0.3378,0.338,0.3526,0,0.2828,0.2889,0.2932,0.2995,0.3029,0.3083,0.3136,0.3193,0.3235,0.3286,0.3314,0.3352,0.3337,0.335,0.338,0.3396,0.3444,0.3375,0.3432,0.3435,0.3475,0.3573,0.3393,0.3511,0.3539,0.3542,0.3543,0,0.2838,0.2882,0.2938,0.3025,0.3044,0.3085,0.3177,0.323,0.3312,0.334,0.3395,0.3417,0.3486,0.3443,0.3535,0.3491,0.3513,0.3522,0.3527,0.3546,0.3499,0.3462,0.3534,0.3465,0.3564,0.3562,0.3561,0,0.2804,0.2889,0.2933,0.2962,0.3057,0.3095,0.3149,0.3237,0.3289,0.3378,0.3419,0.3495,0.3536,0.3577,0.3627,0.3581,0.3721,0.3651,0.372,0.3723,0.3575,0.3562,0.3594,0.3723,0.3723,0.3723,0.3722,0,0.28,0.2837,0.2916,0.2941,0.2992,0.3073,0.3135,0.3201,0.3298,0.3368,0.3438,0.3525,0.3567,0.3656,0.3676,0.3774,0.3771,0.3772,0.3773,0.3599,0.3588,0.3521,0.3478,0.3728,0.3727,0.3726,0.3725,0,0.2755,0.2808,0.2859,0.295,0.2974,0.3009,0.3113,0.3168,0.3265,0.3364,0.34,0.3558,0.3701,0.3764,0.3852,0.3849,0.3821,0.3946,0.3768,0.3747,0.3735,0.3702,0.3617,0.3504,0.405,0.4052,0.4054,0,0.2739,0.276,0.2837,0.286,0.2897,0.2959,0.3004,0.3122,0.3188,0.3401,0.345,0.3642,0.3751,0.3932,0.3979,0.4059,0.3916,0.3939,0.3819,0.376,0.3723,0.3555,0.3451,0.3656,0.3654,0.3653,0.3651,0,0.2701,0.2722,0.2758,0.2793,0.2836,0.2897,0.2977,0.3018,0.3178,0.3268,0.3439,0.3553,0.379,0.3826,0.3966,0.3985,0.3747,0.3918,0.3866,0.3456,0.3259,0.314,0.3566,0.3639,0.364,0.3641,0.3642,0.3642,0.2654,0.2655,0.2685,0.272,0.2764,0.2812,0.2818,0.2919,0.2997,0.3107,0.3321,0.3429,0.3607,0.3799,0.3807,0.3769,0.3735,0.364,0.3623,0.3474,0.33,0.3753,0.3822,0.3824,0.3826,0.3827,0.3829,0,0.2581,0.2589,0.2616,0.2631,0.2642,0.271,0.2777,0.2763,0.2791,0.2952,0.3052,0.324,0.3325,0.3473,0.3571,0.3465,0.323,0.3377,0.3048,0.2973,0.3385,0.3305,0.3251,0.3251,0.3251,0.3251,0.3251,0.3251,0.2537,0.2519,0.2534,0.2503,0.2517,0.2489,0.2504,0.2499,0.2564,0.2634,0.2735,0.2865,0.3181,0.3363,0.3337,0.3242,0.2967,0.2832,0.2856,0.3117,0.3136,0.3155,0.307,0.2968,0.2967,0.2246,0.2241,0.2238]},{"header":{"parameterUnit":"m.s-1","parameterCategory":2,"la1":30.2991,"la2":30.254,"lo1":-89.0895,"lo2":-89.0444,"dy":0.0017,"dx":0.0017,"nx":28,"ny":28,"refTime":"2023-11-03T09:00:00:Z","depth":"0","parameterNumber":3,"parameterNumberName":"V-component_of_CURRENTS"},"data":[0,0,0,0,0,0,0,0,0,0,0,0,0,0,0,0,0,0,0,0,0,0,0,0,0,0,0,0,0,0,0,0,0,0,0,0,0,0,0,0,0,0,0,0,0,0,0,0,0,0,0,0,0,0,0,0,0,0,-0.0389,-0.039,0,-0.0444,-0.0445,-0.0445,-0.0483,-0.0483,-0.0484,-0.0484,-0.0558,-0.056,-0.0561,0,0,0,0,0,0,0,0,0,0,0,0,0,-0.0386,-0.0385,-0.0389,-0.039,-0.0391,-0.0444,-0.0445,-0.0446,-0.0483,-0.0483,-0.0484,-0.0484,-0.0557,-0.0559,-0.0561,0,0,0,0,0,0,0,0,0,0,0,0,0,-0.0409,-0.0385,-0.0389,-0.0415,-0.0418,-0.0444,-0.0445,-0.0446,-0.0483,-0.0483,-0.0484,-0.0484,-0.0557,-0.0559,-0.0562,-0.0572,0,0,-0.057,-0.0571,0,0,0,0,0,0,0,0,-0.0407,-0.0409,-0.0411,-0.0413,-0.0417,-0.0456,-0.0471,-0.0489,-0.0483,-0.0459,-0.0484,-0.0484,-0.0525,-0.053,-0.0541,-0.0575,-0.0578,-0.057,-0.0572,-0.0573,-0.0574,0,0,0,0,0,0,0,-0.0406,-0.0407,-0.0412,-0.0411,-0.0415,-0.0447,-0.045,-0.0474,-0.0491,-0.0461,-0.0464,-0.0469,-0.0527,-0.0538,-0.0543,-0.058,-0.057,-0.0572,-0.0574,-0.0575,-0.0645,-0.0646,0,0,0,0,0,0,-0.0393,-0.0405,-0.041,-0.0413,-0.0412,-0.0447,-0.045,-0.0444,-0.049,-0.0497,-0.0468,-0.047,-0.0533,-0.054,-0.0545,-0.0579,-0.0573,-0.0575,-0.0577,-0.0645,-0.0646,-0.0646,0,0,0,0,0,0,-0.0393,-0.0393,-0.0408,-0.0411,-0.0415,-0.0446,-0.0439,-0.0445,-0.0456,-0.0495,-0.0503,-0.0473,-0.0534,-0.0542,-0.0564,-0.0581,-0.0576,-0.0579,-0.0645,-0.0645,-0.0646,-0.0633,0,0,0,0,0,0,-0.0392,-0.0392,-0.0384,-0.0409,-0.0414,-0.0415,-0.0439,-0.0446,-0.0458,-0.0461,-0.0501,-0.0508,-0.0535,-0.0559,-0.0566,-0.0585,-0.0581,-0.0644,-0.0645,-0.0646,-0.0633,-0.0633,-0.0633,0,0,0,0,0,-0.0392,-0.0374,-0.0383,-0.0384,-0.0402,-0.0415,-0.042,-0.0445,-0.0457,-0.0457,-0.0486,-0.0507,-0.0568,-0.0561,-0.0569,-0.0589,-0.0644,-0.0645,-0.0645,-0.0633,-0.0633,-0.0633,0,0,0,0,0,0,-0.0363,-0.0377,-0.0387,-0.0374,-0.0391,-0.0421,-0.0422,-0.0441,-0.0464,-0.0466,-0.0506,-0.0515,-0.0544,-0.0562,-0.0554,-0.061,-0.0612,-0.0614,-0.06,-0.06,-0.06,-0.0593,-0.0583,0,0,0,0,0,-0.0354,-0.0349,-0.0368,-0.0359,-0.0363,-0.0393,-0.0402,-0.0417,-0.0441,-0.0451,-0.0481,-0.0516,-0.0554,-0.0571,-0.06,-0.0624,-0.0645,-0.0643,-0.0643,-0.0643,-0.0643,-0.0705,-0.0711,-0.0648,-0.0648,-0.0648,0,0,-0.0341,-0.0349,-0.0346,-0.0354,-0.0369,-0.0373,-0.0399,-0.0405,-0.0418,-0.0456,-0.0478,-0.0513,-0.0559,-0.0592,-0.0607,-0.0609,-0.0665,-0.0644,-0.0643,-0.0643,-0.0706,-0.0713,-0.0718,-0.0648,-0.0648,-0.0648,0,0,-0.0313,-0.0317,-0.0305,-0.0316,-0.0332,-0.0353,-0.0352,-0.0378,-0.0399,-0.0422,-0.0462,-0.0502,-0.0545,-0.059,-0.0618,-0.0632,-0.0662,-0.0643,-0.0641,-0.0701,-0.0707,-0.0713,-0.0716,-0.0722,-0.0645,-0.0645,-0.0645,0,-0.0296,-0.0284,-0.0304,-0.0298,-0.0306,-0.0341,-0.0334,-0.0361,-0.0394,-0.0416,-0.0423,-0.0511,-0.055,-0.061,-0.0622,-0.0635,-0.0654,-0.0638,-0.0702,-0.0708,-0.0714,-0.0716,-0.0723,-0.0644,-0.0644,-0.0644,-0.0644,0,-0.0262,-0.0256,-0.0249,-0.0257,-0.0268,-0.0266,-0.0303,-0.0323,-0.0353,-0.0388,-0.0444,-0.0499,-0.055,-0.0579,-0.0609,-0.0674,-0.0667,-0.0695,-0.0703,-0.072,-0.072,-0.0728,-0.0643,-0.0644,-0.0644,-0.0644,0,0,-0.0213,-0.0223,-0.022,-0.0218,-0.0246,-0.0247,-0.0276,-0.0313,-0.0326,-0.0384,-0.0411,-0.0503,-0.0534,-0.0568,-0.0616,-0.0677,-0.0733,-0.0703,-0.0707,-0.0704,-0.0829,-0.0746,-0.0746,-0.078,-0.0782,-0.0784,-0.0801,0,-0.0181,-0.0159,-0.0179,-0.0167,-0.016,-0.0205,-0.0224,-0.0266,-0.0308,-0.034,-0.043,-0.0464,-0.053,-0.0545,-0.0627,-0.07,-0.0757,-0.0722,-0.0814,-0.0815,-0.074,-0.0754,-0.067,-0.0673,-0.0808,-0.0809,-0.081,0,-0.0141,-0.0134,-0.011,-0.0122,-0.0121,-0.0122,-0.0155,-0.0176,-0.0247,-0.0278,-0.0349,-0.0402,-0.0494,-0.0541,-0.0694,-0.0669,-0.075,-0.0814,-0.0816,-0.0751,-0.0747,-0.0685,-0.0682,-0.0862,-0.0822,-0.0821,-0.082,0,-0.0097,-0.0089,-0.0068,-0.0069,-0.0085,-0.0087,-0.0102,-0.0155,-0.0154,-0.0229,-0.0225,-0.0357,-0.0379,-0.0533,-0.0652,-0.0683,-0.0799,-0.0855,-0.0855,-0.0848,-0.0799,-0.0784,-0.0982,-0.0974,-0.0974,-0.0974,-0.0974,0,-0.0061,-0.0046,-0.0038,-0.0026,0.0007,-0.0029,-0.0007,-0.0046,-0.0069,-0.0033,-0.0177,-0.0154,-0.0383,-0.0466,-0.0621,-0.0727,-0.0773,-0.0848,-0.0857,-0.0786,-0.077,-0.0942,-0.1053,-0.0975,-0.0975,-0.0974,-0.0974,0,-0.0028,-0.0023,0.0008,0.0017,0.0031,0.0053,0.0081,0.0105,0.0061,0.011,0.0102,0.0002,-0.0088,-0.0292,-0.0494,-0.0633,-0.0847,-0.0808,-0.0672,-0.0665,-0.0838,-0.0949,-0.1114,-0.1182,-0.0822,-0.082,-0.0819,0,-0.0017,0.0007,0.0056,0.0102,0.0112,0.015,0.0195,0.0174,0.0226,0.0241,0.0293,0.0219,0.0227,-0.0034,-0.0292,-0.0524,-0.0745,-0.0629,-0.0692,-0.083,-0.0964,-0.1046,-0.11,-0.0614,-0.0611,-0.0608,-0.0606,0,0.0016,0.0042,0.0085,0.0183,0.0251,0.0314,0.0383,0.0454,0.0474,0.0547,0.0655,0.0668,0.0444,0.0262,-0.0075,-0.0256,-0.0721,-0.0582,-0.0794,-0.0868,-0.0906,-0.0977,-0.0589,-0.0584,-0.0586,-0.0588,-0.0589,-0.059,0.0063,0.011,0.0196,0.0295,0.0378,0.05,0.0598,0.0705,0.0855,0.1024,0.0991,0.109,0.0739,0.0315,0.0017,-0.0476,-0.0537,-0.0646,-0.0778,-0.0856,-0.0907,-0.0428,-0.0394,-0.0395,-0.0396,-0.0397,-0.0398,0,0.0155,0.0222,0.0307,0.0455,0.0582,0.0589,0.0757,0.0892,0.1142,0.1301,0.1439,0.1383,0.0956,0.0441,-0.0228,-0.0615,-0.0795,-0.0855,-0.1006,-0.1061,-0.0689,-0.0667,-0.0606,-0.0606,-0.0605,-0.0605,-0.0605,-0.0605,0.0218,0.0346,0.0399,0.064,0.0736,0.0932,0.1049,0.1246,0.1407,0.1696,0.1819,0.1846,0.1473,0.0181,-0.0725,-0.0946,-0.1262,-0.1282,-0.1489,-0.1291,-0.1284,-0.1278,-0.1287,-0.1356,-0.1357,-0.1781,-0.1786,-0.1789]}],[{"header":{"parameterUnit":"m.s-1","parameterCategory":2,"la1":30.2991,"la2":30.254,"lo1":-89.0895,"lo2":-89.0444,"dy":0.0017,"dx":0.0017,"nx":28,"ny":28,"refTime":"2023-11-03T09:00:00:Z","depth":"2","parameterNumber":2,"parameterNumberName":"U-component_of_CURRENTS"},"data":[0,0,0,0,0,0,0,0,0,0,0,0,0,0,0,0,0,0,0,0,0,0,0,0,0,0,0,0,0,0,0,0,0,0,0,0,0,0,0,0,0,0,0,0,0,0,0,0,0,0,0,0,0,0,0,0,0,0,0.2415,0.2416,0,0.2451,0.2451,0.2451,0.2466,0.2466,0.2466,0.2467,0.2501,0.2501,0.2502,0,0,0,0,0,0,0,0,0,0,0,0,0,0.2367,0.2368,0.2415,0.2416,0.2417,0.2451,0.2451,0.2451,0.2466,0.2466,0.2467,0.2467,0.2501,0.2501,0.2502,0,0,0,0,0,0,0,0,0,0,0,0,0,0.2389,0.2368,0.2415,0.2433,0.2435,0.2451,0.2451,0.2451,0.2465,0.2466,0.2467,0.2467,0.2501,0.2501,0.2502,0.2493,0,0,0.2504,0.2505,0,0,0,0,0,0,0,0,0.2387,0.239,0.2429,0.2431,0.2434,0.246,0.2448,0.2467,0.2465,0.2448,0.2467,0.2468,0.249,0.2492,0.2489,0.2495,0.2497,0.2504,0.2505,0.2505,0.2505,0,0,0,0,0,0,0,0.2386,0.2388,0.2423,0.243,0.2433,0.2443,0.2445,0.2451,0.246,0.2449,0.2452,0.2465,0.2491,0.2488,0.249,0.2497,0.2504,0.2505,0.2506,0.2506,0.2574,0.2575,0,0,0,0,0,0,0.2392,0.2387,0.2422,0.2425,0.2419,0.2443,0.2446,0.2446,0.246,0.2465,0.2464,0.2466,0.2487,0.2489,0.2491,0.2561,0.2505,0.2506,0.2506,0.2572,0.2574,0.2575,0,0,0,0,0,0,0.239,0.2394,0.2421,0.2412,0.2417,0.2444,0.2443,0.2447,0.245,0.2473,0.2476,0.2466,0.2487,0.249,0.251,0.256,0.2506,0.2507,0.2571,0.2573,0.2575,0.2651,0,0,0,0,0,0,0.2389,0.2393,0.2396,0.2412,0.2418,0.2435,0.2443,0.2447,0.246,0.2462,0.2476,0.2479,0.2488,0.2509,0.2511,0.256,0.2507,0.2569,0.2572,0.2574,0.2647,0.2655,0.2663,0,0,0,0,0,0.2386,0.2394,0.2396,0.2401,0.2421,0.2436,0.2439,0.2457,0.246,0.2461,0.2477,0.2479,0.2527,0.251,0.2512,0.2563,0.2568,0.2571,0.2574,0.2643,0.2654,0.2662,0,0,0,0,0,0,0.2368,0.2397,0.2399,0.2412,0.2424,0.2441,0.2458,0.2456,0.2467,0.2482,0.2484,0.2489,0.2527,0.2525,0.2506,0.2589,0.2553,0.2556,0.2605,0.2614,0.2622,0.2661,0.2508,0,0,0,0,0,0.2367,0.2382,0.2401,0.241,0.2425,0.2436,0.2446,0.2459,0.2474,0.2479,0.2492,0.2515,0.2539,0.2559,0.2573,0.261,0.262,0.2647,0.2655,0.2662,0.2695,0.2739,0.2754,0.2586,0.2585,0.2585,0,0,0.2359,0.2381,0.2386,0.2408,0.2426,0.2458,0.2443,0.2471,0.2499,0.2482,0.2527,0.2535,0.2551,0.2601,0.262,0.2609,0.2711,0.2665,0.2671,0.2702,0.2744,0.276,0.2775,0.2588,0.2587,0.2587,0,0,0.2365,0.2376,0.2398,0.2416,0.2455,0.2477,0.2484,0.251,0.2524,0.2561,0.2565,0.2604,0.2631,0.2667,0.2684,0.2741,0.2743,0.2744,0.2831,0.2873,0.2888,0.2901,0.2921,0.2936,0.276,0.276,0.276,0,0.2357,0.2387,0.2403,0.2435,0.2466,0.2488,0.2523,0.2543,0.2571,0.2592,0.2591,0.2664,0.2675,0.2747,0.2785,0.2765,0.2779,0.2793,0.2886,0.2899,0.2911,0.2929,0.2944,0.2764,0.2763,0.2763,0.2763,0,0.2383,0.2411,0.2431,0.2488,0.2517,0.2553,0.2595,0.2622,0.2654,0.268,0.2747,0.2771,0.2821,0.2835,0.2839,0.2935,0.2912,0.288,0.2864,0.2933,0.2946,0.2961,0.277,0.2768,0.2767,0.2766,0,0,0.2355,0.2434,0.244,0.2467,0.2553,0.2568,0.2642,0.2702,0.2748,0.2796,0.2865,0.2929,0.295,0.2973,0.2979,0.3039,0.3135,0.3018,0.3018,0.3044,0.3223,0.3138,0.3144,0.3121,0.3124,0.3127,0.3192,0,0.2374,0.243,0.248,0.254,0.2577,0.2634,0.2706,0.2764,0.2816,0.2887,0.2942,0.3009,0.2998,0.3039,0.3098,0.3117,0.3179,0.312,0.3148,0.3149,0.3071,0.3161,0.2931,0.2965,0.3206,0.3209,0.321,0,0.2391,0.2427,0.2489,0.2573,0.2598,0.265,0.2754,0.2811,0.2923,0.2979,0.3062,0.3094,0.3196,0.3175,0.327,0.3232,0.3256,0.3271,0.3272,0.3185,0.3092,0.2938,0.2981,0.3234,0.3232,0.323,0.3229,0,0.2351,0.2432,0.248,0.2506,0.2615,0.2658,0.2724,0.2837,0.2901,0.3033,0.3094,0.3203,0.3265,0.3317,0.3354,0.3322,0.3454,0.3391,0.3337,0.3329,0.3137,0.3107,0.3486,0.3486,0.3486,0.3486,0.3485,0,0.2354,0.2378,0.2461,0.2476,0.2551,0.2636,0.2727,0.2811,0.2955,0.3029,0.3129,0.3207,0.3312,0.338,0.34,0.3419,0.3482,0.3387,0.3359,0.3153,0.3125,0.3358,0.3343,0.3488,0.3487,0.3487,0.3487,0,0.2301,0.2356,0.2397,0.2496,0.2533,0.2576,0.2718,0.2774,0.2921,0.302,0.3071,0.3241,0.3314,0.3386,0.3487,0.346,0.3493,0.3487,0.3237,0.3178,0.3323,0.3311,0.3417,0.3415,0.3414,0.3412,0.3411,0,0.2279,0.2315,0.2383,0.2402,0.2446,0.2526,0.2591,0.2754,0.2817,0.301,0.3051,0.3191,0.3245,0.3365,0.3387,0.3411,0.347,0.3202,0.3101,0.3365,0.3326,0.3316,0.3306,0.2868,0.2862,0.2858,0.2854,0,0.2241,0.227,0.2284,0.234,0.2387,0.2439,0.2533,0.2585,0.2755,0.2832,0.2937,0.3004,0.3144,0.3094,0.3172,0.3149,0.3172,0.3107,0.3473,0.2918,0.2851,0.2811,0.2819,0.2814,0.2818,0.2821,0.2823,0.2825,0.2194,0.2197,0.2222,0.2266,0.2302,0.2322,0.2333,0.2424,0.2496,0.2587,0.2737,0.2766,0.2865,0.2856,0.2795,0.277,0.2966,0.2837,0.2849,0.2867,0.2789,0.2722,0.2645,0.2648,0.2651,0.2653,0.2655,0,0.2125,0.2137,0.2156,0.2169,0.2145,0.2223,0.2269,0.2253,0.2255,0.2392,0.2455,0.2316,0.2325,0.2412,0.2326,0.2342,0.2306,0.2234,0.2165,0.221,0.2248,0.2135,0.182,0.1817,0.1814,0.1811,0,0,0.2078,0.2045,0.2051,0.199,0.2016,0.1972,0.1967,0.1957,0.2022,0.2006,0.2038,0.225,0.2371,0.2064,0.204,0.1914,0.2039,0.1844,0.2526,0.2493,0.2526,0.2623,0.2504,0,0,0,0,0]},{"header":{"parameterUnit":"m.s-1","parameterCategory":2,"la1":30.2991,"la2":30.254,"lo1":-89.0895,"lo2":-89.0444,"dy":0.0017,"dx":0.0017,"nx":28,"ny":28,"refTime":"2023-11-03T09:00:00:Z","depth":"2","parameterNumber":3,"parameterNumberName":"V-component_of_CURRENTS"},"data":[0,0,0,0,0,0,0,0,0,0,0,0,0,0,0,0,0,0,0,0,0,0,0,0,0,0,0,0,0,0,0,0,0,0,0,0,0,0,0,0,0,0,0,0,0,0,0,0,0,0,0,0,0,0,0,0,0,0,0.0119,0.0119,0,0.0058,0.0057,0.0056,0.0016,0.0016,0.0016,0.0016,-0.0058,-0.006,-0.0061,0,0,0,0,0,0,0,0,0,0,0,0,0,0.0138,0.0139,0.0119,0.0119,0.0118,0.0058,0.0057,0.0056,0.0016,0.0016,0.0016,0.0016,-0.0057,-0.0059,-0.0062,0,0,0,0,0,0,0,0,0,0,0,0,0,0.0108,0.0139,0.012,0.0092,0.0089,0.0058,0.0057,0.0056,0.0016,0.0016,0.0016,0.0016,-0.0057,-0.0059,-0.0062,-0.0076,0,0,-0.007,-0.0072,0,0,0,0,0,0,0,0,0.011,0.0107,0.0097,0.0094,0.0091,0.0046,0.0037,0.0012,0.0017,0.0043,0.0016,0.0016,-0.0023,-0.0029,-0.0042,-0.0079,-0.0082,-0.0071,-0.0072,-0.0074,-0.0074,0,0,0,0,0,0,0,0.0112,0.0109,0.0094,0.0096,0.0093,0.0061,0.0057,0.0031,0.001,0.004,0.0038,0.0033,-0.0025,-0.0039,-0.0044,-0.0083,-0.0071,-0.0073,-0.0075,-0.0076,-0.0143,-0.0143,0,0,0,0,0,0,0.0126,0.0111,0.0096,0.0092,0.0102,0.0061,0.0057,0.0059,0.001,0.0003,0.0033,0.0032,-0.0034,-0.0041,-0.0047,-0.0059,-0.0074,-0.0076,-0.0078,-0.0143,-0.0143,-0.0143,0,0,0,0,0,0,0.0127,0.0126,0.0098,0.0101,0.0095,0.0062,0.0065,0.0058,0.0048,0.0006,-0.0002,0.0031,-0.0035,-0.0043,-0.0064,-0.0062,-0.0077,-0.008,-0.0143,-0.0143,-0.0143,-0.0088,0,0,0,0,0,0,0.0128,0.0126,0.013,0.0102,0.0096,0.0091,0.0065,0.0057,0.0046,0.0043,0.0001,-0.0007,-0.0035,-0.0059,-0.0067,-0.0066,-0.0082,-0.0143,-0.0143,-0.0143,-0.009,-0.0086,-0.0083,0,0,0,0,0,0.0129,0.014,0.013,0.0128,0.0103,0.0091,0.0085,0.0059,0.0046,0.0048,0.0017,-0.0005,-0.0066,-0.0061,-0.007,-0.0071,-0.0143,-0.0143,-0.0143,-0.0091,-0.0087,-0.0083,0,0,0,0,0,0,0.0148,0.0136,0.0125,0.0131,0.0117,0.0085,0.0081,0.0065,0.0041,0.0037,-0.0003,-0.0013,-0.0031,-0.0059,-0.0053,-0.0092,-0.0109,-0.0111,-0.0067,-0.0064,-0.006,-0.0046,-0.0085,0,0,0,0,0,0.0155,0.0161,0.0142,0.0146,0.0141,0.0112,0.0102,0.0088,0.0064,0.0053,0.0021,-0.0014,-0.004,-0.0056,-0.0085,-0.0103,-0.0127,-0.0112,-0.0108,-0.0105,-0.01,-0.0148,-0.0148,-0.0144,-0.0144,-0.0144,0,0,0.0165,0.0157,0.0161,0.0151,0.0134,0.0139,0.0106,0.0099,0.0102,0.0049,0.0037,-0.0001,-0.0042,-0.0063,-0.0075,-0.0085,-0.0114,-0.0106,-0.0103,-0.0099,-0.0148,-0.0149,-0.0149,-0.0144,-0.0144,-0.0144,0,0,0.019,0.018,0.0195,0.0189,0.0174,0.0158,0.0161,0.0133,0.012,0.0103,0.0066,0.0033,-0.0012,-0.004,-0.0059,-0.0055,-0.0093,-0.0072,-0.0046,-0.0093,-0.0093,-0.0094,-0.0099,-0.0101,-0.0073,-0.0073,-0.0073,0,0.0201,0.022,0.0196,0.0209,0.0213,0.0174,0.0194,0.0175,0.0142,0.0138,0.0108,0.0043,0.0002,-0.0014,-0.0027,-0.0046,-0.0072,-0.0054,-0.0088,-0.0089,-0.0091,-0.0096,-0.0099,-0.007,-0.0071,-0.0071,-0.0071,0,0.024,0.0254,0.0262,0.0269,0.0268,0.0278,0.0256,0.0249,0.0221,0.0198,0.017,0.0105,0.0067,0.0042,0.0002,-0.0029,-0.004,-0.0074,-0.0093,-0.0088,-0.0093,-0.0097,-0.0066,-0.0067,-0.0068,-0.0069,0,0,0.0273,0.0288,0.0293,0.0316,0.0305,0.0317,0.0319,0.0319,0.033,0.0272,0.0273,0.02,0.0151,0.0125,0.0069,0.0016,-0.0024,-0.0042,-0.0046,-0.0038,-0.0105,-0.0119,-0.0125,-0.0076,-0.0077,-0.0078,-0.0093,0,0.0313,0.0362,0.0353,0.0403,0.043,0.0406,0.0415,0.0406,0.0379,0.0364,0.0292,0.0263,0.0188,0.016,0.0095,0.0011,-0.0037,-0.0015,-0.0119,-0.012,-0.0129,-0.0131,-0.0113,-0.0127,-0.0097,-0.0098,-0.0098,0,0.0359,0.0389,0.0447,0.0487,0.0496,0.0512,0.0535,0.0542,0.0506,0.048,0.0431,0.0364,0.0295,0.0211,0.0085,0.0097,-0.0005,-0.0077,-0.0079,-0.0117,-0.0144,-0.0134,-0.0135,-0.0105,-0.0104,-0.0104,-0.0103,0,0.0414,0.046,0.0515,0.0528,0.0556,0.0577,0.0589,0.0576,0.0597,0.0552,0.0554,0.0453,0.041,0.0271,0.0113,0.009,-0.0032,-0.0074,-0.0172,-0.0172,-0.0187,-0.0187,-0.0182,-0.0182,-0.0182,-0.0182,-0.0182,0,0.0472,0.0522,0.0546,0.0581,0.0647,0.0641,0.0698,0.0691,0.0686,0.0725,0.0616,0.0618,0.041,0.0312,0.0153,-0.0004,0.0004,-0.0161,-0.0186,-0.0164,-0.0162,-0.0177,-0.0176,-0.0182,-0.0182,-0.0182,-0.0182,0,0.0538,0.0551,0.062,0.0659,0.0676,0.0726,0.0778,0.082,0.0804,0.085,0.0839,0.0741,0.0619,0.0427,0.0213,0.0071,-0.009,-0.0158,-0.0098,-0.0117,-0.0203,-0.0199,-0.025,-0.0251,-0.0251,-0.0252,-0.0253,0,0.0579,0.0615,0.0682,0.0726,0.0749,0.0816,0.0863,0.0874,0.0927,0.094,0.0973,0.0861,0.0797,0.0507,0.0224,-0.0027,-0.0081,-0.0177,-0.0234,-0.0196,-0.0215,-0.021,-0.0205,-0.0215,-0.0215,-0.0215,-0.0215,0,0.0651,0.0666,0.072,0.0807,0.087,0.0952,0.1023,0.1079,0.1108,0.1142,0.1167,0.1113,0.0838,0.0569,0.0213,0.0037,-0.0136,-0.0188,-0.0172,-0.0206,-0.0167,-0.0184,-0.018,-0.0216,-0.0216,-0.0216,-0.0216,-0.0216,0.0691,0.0739,0.0799,0.0885,0.0968,0.1071,0.114,0.1216,0.1298,0.1345,0.1307,0.1237,0.0942,0.0478,0.0173,-0.0151,-0.0142,-0.0259,-0.0257,-0.0255,-0.0254,-0.022,-0.0276,-0.0276,-0.0276,-0.0276,-0.0276,0,0.073,0.0785,0.0872,0.0972,0.1071,0.1109,0.1236,0.1294,0.1391,0.1436,0.1436,0.1162,0.0864,0.0528,0.0048,-0.0235,-0.0263,-0.0322,-0.0296,-0.0292,-0.0289,-0.029,-0.0322,-0.0323,-0.0323,-0.0324,0,0,0.075,0.0832,0.0878,0.1035,0.1114,0.1241,0.1312,0.1391,0.1447,0.1472,0.1436,0.1362,0.0968,0.0618,0.0229,-0.0048,-0.0105,-0.0104,-0.0036,0.0045,0.0051,-0.0222,-0.0215,0,0,0,0,0]}],[{"header":{"parameterUnit":"m.s-1","parameterCategory":2,"la1":30.2991,"la2":30.254,"lo1":-89.0895,"lo2":-89.0444,"dy":0.0017,"dx":0.0017,"nx":28,"ny":28,"refTime":"2023-11-03T09:00:00:Z","depth":"4","parameterNumber":2,"parameterNumberName":"U-component_of_CURRENTS"},"data":[0,0,0,0,0,0,0,0,0,0,0,0,0,0,0,0,0,0,0,0,0,0,0,0,0,0,0,0,0,0,0,0,0,0,0,0,0,0,0,0,0,0,0,0,0,0,0,0,0,0,0,0,0,0,0,0,0,0,0.1444,0.1445,0,0.1505,0.1506,0.1506,0.1557,0.1557,0.1558,0.1559,0.1624,0.1625,0.1626,0,0,0,0,0,0,0,0,0,0,0,0,0,0.1367,0.1368,0.1444,0.1445,0.1446,0.1505,0.1506,0.1507,0.1557,0.1558,0.1558,0.1559,0.1624,0.1625,0.1626,0,0,0,0,0,0,0,0,0,0,0,0,0,0.141,0.1368,0.1444,0.1479,0.1482,0.1505,0.1506,0.1507,0.1557,0.1558,0.1558,0.1559,0.1623,0.1625,0.1627,0.1619,0,0,0.1632,0.1633,0,0,0,0,0,0,0,0,0.1408,0.1413,0.1473,0.1476,0.1481,0.1525,0.1503,0.1545,0.1556,0.1527,0.1559,0.156,0.1591,0.1596,0.1604,0.1622,0.1625,0.1632,0.1633,0.1634,0.1634,0,0,0,0,0,0,0,0.1405,0.1411,0.1467,0.1473,0.1478,0.149,0.1497,0.1511,0.1553,0.153,0.1534,0.1542,0.1593,0.1602,0.1606,0.1626,0.1632,0.1634,0.1635,0.1635,0.1724,0.1725,0,0,0,0,0,0,0.1398,0.1408,0.1465,0.1469,0.1447,0.1491,0.1499,0.1509,0.1553,0.156,0.1541,0.1544,0.1598,0.1604,0.1608,0.1676,0.1634,0.1635,0.1636,0.1723,0.1724,0.1726,0,0,0,0,0,0,0.1397,0.1403,0.1463,0.144,0.1449,0.1491,0.1502,0.151,0.1552,0.1561,0.1569,0.158,0.1599,0.1606,0.1651,0.1676,0.1636,0.1638,0.1721,0.1723,0.1725,0.1765,0,0,0,0,0,0,0.1394,0.1402,0.1423,0.144,0.145,0.1496,0.1502,0.151,0.1554,0.156,0.1596,0.1601,0.1601,0.1648,0.1653,0.1678,0.1639,0.172,0.1722,0.1725,0.1762,0.1768,0.1773,0,0,0,0,0,0.1391,0.1408,0.1423,0.1431,0.1472,0.1497,0.1504,0.1535,0.1555,0.1577,0.1606,0.1602,0.1667,0.1651,0.1656,0.1682,0.1718,0.1721,0.1724,0.1759,0.1767,0.1773,0,0,0,0,0,0,0.1388,0.1416,0.1432,0.1459,0.1487,0.1507,0.1534,0.1554,0.1594,0.1609,0.162,0.1627,0.1676,0.1675,0.1657,0.1716,0.1692,0.1696,0.1717,0.1724,0.1729,0.1726,0.1641,0,0,0,0,0,0.1395,0.1418,0.1444,0.1469,0.1486,0.1517,0.1539,0.1559,0.1588,0.1609,0.1633,0.166,0.1685,0.1703,0.1722,0.1754,0.1761,0.1774,0.178,0.1784,0.1786,0.1822,0.183,0.1736,0.1736,0.1735,0,0,0.1399,0.142,0.1433,0.1471,0.1497,0.1521,0.1534,0.1573,0.1599,0.1608,0.1662,0.1685,0.17,0.1737,0.1759,0.1744,0.1819,0.1788,0.1792,0.1791,0.1826,0.1835,0.1843,0.1738,0.1737,0.1737,0,0,0.1406,0.1442,0.146,0.1487,0.1531,0.1546,0.1565,0.1602,0.1633,0.1679,0.1694,0.1731,0.1774,0.1783,0.1794,0.1841,0.185,0.1858,0.1881,0.1916,0.1924,0.1931,0.1963,0.1973,0.1857,0.1857,0.1857,0,0.1412,0.144,0.147,0.1497,0.1522,0.156,0.1585,0.1615,0.1664,0.1692,0.1705,0.1781,0.179,0.1832,0.1848,0.1853,0.188,0.1853,0.1923,0.193,0.1937,0.1968,0.1978,0.1859,0.1859,0.1859,0.1859,0,0.1424,0.1461,0.1478,0.1521,0.155,0.1582,0.162,0.1662,0.1704,0.1732,0.1802,0.1824,0.1869,0.1878,0.1878,0.1932,0.1941,0.1929,0.1904,0.1949,0.1979,0.1988,0.1863,0.1862,0.1861,0.1861,0,0,0.1394,0.147,0.1479,0.1507,0.1569,0.1587,0.1642,0.1692,0.1738,0.1792,0.1853,0.1891,0.192,0.1934,0.1947,0.1971,0.2036,0.1976,0.1977,0.2004,0.213,0.2019,0.2019,0.2049,0.2051,0.2052,0.2136,0,0.1397,0.1445,0.1484,0.1532,0.1559,0.1616,0.1661,0.1715,0.1774,0.1842,0.1884,0.1949,0.1938,0.1979,0.2002,0.2039,0.2063,0.2015,0.2086,0.2087,0.198,0.2026,0.2058,0.2143,0.2145,0.2147,0.2148,0,0.1386,0.1425,0.1474,0.1545,0.1563,0.1603,0.1687,0.1735,0.1833,0.1885,0.1958,0.2004,0.2069,0.2049,0.2128,0.2109,0.2122,0.2135,0.2138,0.2024,0.1993,0.2087,0.2165,0.2164,0.2163,0.2161,0.216,0,0.1333,0.141,0.145,0.1477,0.1564,0.1609,0.1663,0.1757,0.1811,0.1931,0.1993,0.2071,0.2137,0.2171,0.2209,0.2187,0.2289,0.2255,0.2162,0.2155,0.2212,0.2204,0.2294,0.2294,0.2294,0.2294,0.2293,0,0.1302,0.1335,0.144,0.1463,0.1521,0.1595,0.1674,0.1741,0.1856,0.1922,0.2023,0.2087,0.2176,0.2244,0.225,0.2246,0.2326,0.2174,0.2169,0.2229,0.2221,0.222,0.221,0.2297,0.2296,0.2295,0.2295,0,0.1227,0.1297,0.1351,0.1461,0.15,0.1545,0.1675,0.1729,0.1853,0.195,0.1998,0.2133,0.2222,0.2291,0.2359,0.2292,0.23,0.2272,0.2354,0.2352,0.2131,0.2123,0.217,0.2166,0.2164,0.2161,0.216,0,0.1189,0.1213,0.1338,0.1378,0.1436,0.1525,0.1583,0.1713,0.1774,0.1954,0.1989,0.2134,0.2206,0.2221,0.2295,0.2316,0.2278,0.2264,0.2163,0.2127,0.2119,0.2115,0.2111,0.2155,0.2154,0.2154,0.2153,0,0.1116,0.1177,0.1228,0.1315,0.1388,0.1452,0.1553,0.1585,0.1734,0.1863,0.1935,0.199,0.2091,0.2145,0.219,0.2189,0.2263,0.2234,0.2238,0.2143,0.211,0.2104,0.2103,0.2143,0.2145,0.2146,0.2146,0,0.1069,0.1089,0.1172,0.1236,0.1316,0.1358,0.1422,0.1499,0.1572,0.1765,0.1786,0.1938,0.2067,0.2082,0.2119,0.2125,0.2076,0.1983,0.1999,0.201,0.1919,0.1852,0.1807,0,0,0,0,0,0.1016,0.1034,0.1085,0.1148,0.1221,0.1274,0.1388,0.1458,0.1602,0.1607,0.1691,0.1773,0.1843,0.1924,0.1897,0.2051,0.2085,0.201,0.1986,0.2091,0.2102,0.2009,0,0,0,0,0,0,0.0981,0.1025,0.1051,0.1059,0.1088,0.1157,0.1228,0.1329,0.1341,0.1495,0.1546,0.1661,0.1762,0.1841,0.1862,0.1886,0.1833,0.2105,0.2101,0.2085,0.2094,0.2103,0.2011,0,0,0,0,0]},{"header":{"parameterUnit":"m.s-1","parameterCategory":2,"la1":30.2991,"la2":30.254,"lo1":-89.0895,"lo2":-89.0444,"dy":0.0017,"dx":0.0017,"nx":28,"ny":28,"refTime":"2023-11-03T09:00:00:Z","depth":"4","parameterNumber":3,"parameterNumberName":"V-component_of_CURRENTS"},"data":[0,0,0,0,0,0,0,0,0,0,0,0,0,0,0,0,0,0,0,0,0,0,0,0,0,0,0,0,0,0,0,0,0,0,0,0,0,0,0,0,0,0,0,0,0,0,0,0,0,0,0,0,0,0,0,0,0,0,0.0197,0.0197,0,0.0159,0.0159,0.0159,0.0137,0.0137,0.0138,0.0138,0.0094,0.0093,0.0092,0,0,0,0,0,0,0,0,0,0,0,0,0,0.0213,0.0213,0.0197,0.0197,0.0196,0.016,0.0159,0.0158,0.0137,0.0137,0.0138,0.0138,0.0095,0.0093,0.0092,0,0,0,0,0,0,0,0,0,0,0,0,0,0.0193,0.0213,0.0197,0.0182,0.018,0.016,0.0159,0.0158,0.0137,0.0137,0.0138,0.0138,0.0095,0.0093,0.0092,0.008,0,0,0.0086,0.0085,0,0,0,0,0,0,0,0,0.0195,0.0193,0.0185,0.0183,0.0181,0.0154,0.0149,0.0132,0.0137,0.0153,0.0138,0.0138,0.0114,0.0111,0.0103,0.0078,0.0077,0.0086,0.0085,0.0084,0.0084,0,0,0,0,0,0,0,0.0196,0.0194,0.0181,0.0184,0.0182,0.0164,0.0162,0.0145,0.0133,0.0151,0.015,0.0147,0.0113,0.0104,0.0101,0.0076,0.0086,0.0085,0.0084,0.0083,0.0055,0.0055,0,0,0,0,0,0,0.0204,0.0196,0.0182,0.018,0.0189,0.0164,0.0161,0.0162,0.0133,0.0129,0.0147,0.0146,0.0107,0.0104,0.01,0.0116,0.0084,0.0083,0.0082,0.0054,0.0055,0.0055,0,0,0,0,0,0,0.0205,0.0204,0.0184,0.0187,0.0184,0.0164,0.0165,0.0161,0.0156,0.013,0.0126,0.0147,0.0107,0.0102,0.0092,0.0113,0.0082,0.008,0.0054,0.0055,0.0055,0.0129,0,0,0,0,0,0,0.0206,0.0204,0.0207,0.0188,0.0184,0.0181,0.0165,0.016,0.0155,0.0153,0.0129,0.0124,0.0107,0.0095,0.009,0.011,0.0079,0.0054,0.0054,0.0055,0.0126,0.0132,0.0137,0,0,0,0,0,0.0206,0.0215,0.0208,0.0206,0.0189,0.0181,0.0178,0.0163,0.0155,0.0157,0.014,0.0125,0.0095,0.0094,0.0088,0.0108,0.0053,0.0054,0.0055,0.0124,0.0131,0.0137,0,0,0,0,0,0,0.022,0.0213,0.0205,0.0209,0.0199,0.0178,0.0179,0.0167,0.0154,0.0154,0.0128,0.0122,0.012,0.01,0.0099,0.01,0.0072,0.0072,0.0127,0.0133,0.0138,0.0162,0.0077,0,0,0,0,0,0.0226,0.0233,0.0217,0.0221,0.0219,0.0199,0.0193,0.0184,0.017,0.0164,0.0146,0.0128,0.0117,0.0114,0.0095,0.0098,0.0067,0.0106,0.0111,0.0116,0.0131,0.0101,0.0105,0.0057,0.0057,0.0057,0,0,0.0232,0.0229,0.0232,0.0225,0.0216,0.0224,0.0196,0.0194,0.0204,0.0161,0.0168,0.0143,0.0119,0.0122,0.0119,0.0111,0.011,0.0117,0.0121,0.0134,0.0102,0.0107,0.0111,0.0058,0.0058,0.0058,0,0,0.0255,0.0246,0.0262,0.0258,0.025,0.0242,0.0245,0.0228,0.0225,0.0225,0.0197,0.0189,0.0168,0.0161,0.0154,0.0177,0.0134,0.0165,0.0221,0.0192,0.0196,0.02,0.0154,0.0153,0.0175,0.0175,0.0175,0,0.0262,0.028,0.0264,0.0277,0.0284,0.0256,0.0278,0.027,0.0252,0.0257,0.0238,0.0212,0.0193,0.0203,0.0215,0.0193,0.0158,0.0203,0.0201,0.0203,0.0205,0.0158,0.0156,0.0179,0.0179,0.0178,0.0178,0,0.0296,0.0311,0.032,0.0334,0.0338,0.035,0.0342,0.0343,0.0335,0.0327,0.0326,0.0292,0.0281,0.0272,0.0256,0.0265,0.0228,0.0206,0.0189,0.0215,0.0163,0.0159,0.0184,0.0183,0.0182,0.0181,0,0,0.0317,0.0341,0.0345,0.0368,0.0372,0.0383,0.0403,0.0417,0.0435,0.0411,0.0428,0.0411,0.0384,0.0374,0.0341,0.0326,0.0309,0.0283,0.0279,0.0246,0.0228,0.0186,0.0177,0.0284,0.0284,0.0284,0.0181,0,0.0351,0.0397,0.0399,0.0449,0.0475,0.0466,0.0491,0.0497,0.0493,0.0497,0.0465,0.0463,0.0424,0.0418,0.0397,0.0328,0.0304,0.0338,0.0201,0.0197,0.0164,0.0174,0.0284,0.0178,0.0177,0.0176,0.0176,0,0.0389,0.0418,0.0475,0.052,0.0531,0.0556,0.0595,0.0612,0.0609,0.0603,0.0589,0.0547,0.0523,0.0482,0.0386,0.0405,0.0331,0.0274,0.0268,0.0206,0.0149,0.0147,0.0168,0.0169,0.0169,0.017,0.017,0,0.0424,0.0473,0.0527,0.0541,0.0583,0.0612,0.0634,0.0648,0.0675,0.0667,0.0672,0.062,0.0592,0.0502,0.0382,0.0382,0.0261,0.0239,0.013,0.0124,0.0161,0.0158,0.0177,0.0177,0.0178,0.0178,0.0178,0,0.0464,0.0507,0.055,0.0579,0.0648,0.066,0.0724,0.0733,0.0753,0.0783,0.0728,0.0718,0.0598,0.0508,0.0397,0.0246,0.0265,0.0143,0.0102,0.019,0.0193,0.0156,0.0155,0.0174,0.0175,0.0176,0.0176,0,0.0496,0.0523,0.0587,0.0643,0.0668,0.0717,0.0784,0.0822,0.0832,0.0864,0.0863,0.0792,0.0665,0.0526,0.0366,0.0264,0.0126,0.0068,0.0164,0.0129,0.0003,0.0006,-0.0063,-0.0065,-0.0067,-0.0069,-0.007,0,0.0515,0.0554,0.0633,0.0674,0.0704,0.0776,0.0823,0.0861,0.0897,0.09,0.0909,0.0808,0.0734,0.0474,0.0326,0.0097,0.0067,-0.0011,0.0012,0.0015,-0.0019,-0.0012,-0.0006,-0.0073,-0.0073,-0.0074,-0.0074,0,0.0548,0.0579,0.0627,0.0709,0.0772,0.0848,0.0911,0.0941,0.0976,0.0989,0.0935,0.0803,0.0654,0.0459,0.0277,0.0118,0.0038,-0.0031,-0.0028,-0.0007,0.0002,-0.0028,-0.002,-0.0081,-0.008,-0.0079,-0.0079,0,0.0564,0.0599,0.0658,0.073,0.0814,0.0882,0.0923,0.095,0.0986,0.0982,0.0957,0.0804,0.0723,0.0468,0.0303,0.0137,0.0096,0.0045,0.0044,0.0049,0.0112,0.0141,0.0071,0,0,0,0,0,0.0565,0.0596,0.0668,0.0741,0.0827,0.0875,0.0962,0.0993,0.1023,0.0988,0.0976,0.0833,0.058,0.0476,0.0301,0.0261,0.0064,0.0049,0.0004,-0.0116,-0.0109,-0.0057,0,0,0,0,0,0,0.0559,0.0619,0.0655,0.0737,0.0787,0.0881,0.0938,0.0965,0.0945,0.095,0.082,0.0771,0.0529,0.0671,0.0288,0.024,0.0183,-0.006,-0.0064,-0.0121,-0.0114,-0.0108,-0.0052,0,0,0,0,0]}]]